Weather reports worldwide

Advertisment
Lulea/Kallax, Sweden (2186): temperature & dewpoint: 14.10.2017 09:00:00 - 20.10.2017 09:00:00 (CEST)Lulea/Kallax, Sweden (2186): wind speed & gusts: 14.10.2017 09:00:00 - 20.10.2017 09:00:00 (CEST)Lulea/Kallax, Sweden (2186): wind direction: 14.10.2017 09:00:00 - 20.10.2017 09:00:00 (CEST)Lulea/Kallax, Sweden (2186): reduced air pressure: 14.10.2017 09:00:00 - 20.10.2017 09:00:00 (CEST)Lulea/Kallax, Sweden (2186): visibility: 14.10.2017 09:00:00 - 20.10.2017 09:00:00 (CEST)Lulea/Kallax, Sweden (2186): precipitation: 14.10.2017 09:00:00 - 20.10.2017 09:00:00 (CEST)
Date & Time tt [°C] td [°C] ff [km/h] ff [kn] fx [km/h] fx [kn] dd ppp [hPa] vv [km] rr [mm]
20.10.2017 09:00:00 1,0 0,0 15 8 - - NNW - 10 -
20.10.2017 08:00:00 1,4 0,1 16 9 25 14 NNW 1022,2 10 0,0
20.10.2017 07:00:00 1,5 0,5 15 8 25 14 NNW 1021,8 10 0,0
20.10.2017 06:00:00 1,3 0,1 14 8 22 12 NNW 1021,2 50 0,0
20.10.2017 05:00:00 1,2 -0,1 15 8 25 14 NNW 1020,9 10 0,0
20.10.2017 04:00:00 0,1 -0,9 13 7 18 10 NNW 1020,6 10 0,0
20.10.2017 03:00:00 0,3 -0,7 9 5 14 8 NNW 1020,2 10 0,0
20.10.2017 02:00:00 0,6 -0,3 5 3 7 4 NW 1019,9 10 0,0
20.10.2017 01:00:00 -0,6 -1,0 5 3 7 4 NW 1019,6 10 0,0
20.10.2017 00:00:00 -1,1 -1,4 4 2 7 4 NW 1019,4 10 0,0
19.10.2017 23:00:00 -0,4 -0,8 2 1 14 8 NNW 1019,3 10 0,0
19.10.2017 22:00:00 -0,1 -0,5 4 2 14 8 - 1019,3 10 0,0
19.10.2017 21:00:00 1,5 0,9 2 1 14 8 SW 1018,9 10 0,0
19.10.2017 20:00:00 1,6 1,0 0 0 4 2 N 1018,8 10 0,0
19.10.2017 19:00:00 1,5 0,9 2 1 7 4 - 1018,7 10 0,0
19.10.2017 18:00:00 1,9 1,0 0 0 4 2 N 1018,6 10 0,0
19.10.2017 17:00:00 2,4 1,4 0 0 7 4 N 1018,6 10 0,0
19.10.2017 16:00:00 3,4 1,6 4 2 7 4 N 1018,5 10 0,0
19.10.2017 15:00:00 3,5 1,2 5 3 7 4 WNW 1018,1 10 0,0
19.10.2017 14:00:00 4,2 1,9 5 3 11 6 NW 1017,9 10 0,0
19.10.2017 13:00:00 3,9 1,8 8 4 14 8 N 1017,4 10 0,0
19.10.2017 12:00:00 3,3 1,3 9 5 18 10 N 1017,0 10 0,0
19.10.2017 11:00:00 3,2 1,4 11 6 22 12 N 1016,4 10 0,0
19.10.2017 10:00:00 2,8 1,0 9 5 - - NNW 1015,9 10 0,0
19.10.2017 09:00:00 2,5 1,0 9 5 18 10 NNW 1015,1 10 0,0
19.10.2017 08:00:00 2,2 1,0 11 6 14 8 NNW 1014,4 10 0,0
19.10.2017 07:00:00 1,8 0,6 11 6 14 8 NNW 1013,8 10 0,1
19.10.2017 06:00:00 2,3 0,8 9 5 18 10 NNW 1013,1 10 0,0
19.10.2017 05:00:00 1,8 0,9 11 6 14 8 NNW 1012,6 10 0,0
19.10.2017 04:00:00 2,5 0,7 11 6 22 12 NNW 1011,9 10 0,0
19.10.2017 03:00:00 2,9 1,0 15 8 25 14 NNW 1011,3 10 0,0
19.10.2017 02:00:00 2,4 1,1 15 8 25 14 NNW 1010,8 10 0,0
19.10.2017 01:00:00 2,1 0,8 18 10 22 12 NW 1010,1 10 0,0
19.10.2017 00:00:00 -0,2 -0,9 11 6 18 10 NNW 1009,6 10 0,0
18.10.2017 23:00:00 -0,4 -1,2 13 7 18 10 NNW 1009,1 10 0,0
18.10.2017 22:00:00 0,7 0,0 13 7 18 10 NNW 1008,4 10 0,0
18.10.2017 21:00:00 2,4 0,9 11 6 18 10 NNW 1007,6 10 0,0
18.10.2017 20:00:00 0,7 0,1 5 3 11 6 NW 1006,9 10 0,0
18.10.2017 19:00:00 1,1 0,2 11 6 14 8 NW 1006,3 10 0,0
18.10.2017 18:00:00 2,6 1,1 13 7 14 8 WNW 1005,7 10 0,0
18.10.2017 17:00:00 2,7 1,1 11 6 22 12 WNW 1005,1 10 0,0
18.10.2017 16:00:00 2,3 1,1 15 8 22 12 NW 1004,6 10 0,0
18.10.2017 15:00:00 2,2 1,2 16 9 22 12 NNW 1004,0 10 0,0
18.10.2017 14:00:00 2,1 1,5 16 9 22 12 NNW 1003,2 10 0,0
18.10.2017 13:00:00 1,7 1,4 15 8 18 10 NW 1002,4 10 0,0
18.10.2017 12:00:00 0,8 0,7 11 6 18 10 NNW 1001,6 4,0 0,0
18.10.2017 11:00:00 0,0 -0,3 9 5 18 10 NNW 1000,8 0,9 0,0
18.10.2017 10:00:00 -0,6 -0,9 9 5 18 10 N 1000,0 0,4 0,0
18.10.2017 09:00:00 -0,4 -0,8 9 5 18 10 NNW 999,3 0,7 0,0
18.10.2017 08:00:00 0,0 -0,7 9 5 14 8 N 998,6 10 0,0
18.10.2017 07:00:00 0,3 -0,3 9 5 14 8 NNW 998,0 10 0,0
18.10.2017 06:00:00 -0,6 -1,0 9 5 14 8 NNW 997,8 10 0,0
18.10.2017 05:00:00 -0,2 -0,6 9 5 14 8 NNW 997,6 10 0,0
18.10.2017 04:00:00 -1,3 -1,7 8 4 11 6 NNW 997,5 10 0,0
18.10.2017 03:00:00 -1,0 -1,4 4 2 7 4 NNW 997,5 10 0,0
18.10.2017 02:00:00 -1,5 -2,1 8 4 7 4 NNW 997,6 10 0,0
18.10.2017 01:00:00 -1,3 -1,9 4 2 7 4 NW 997,8 10 0,0
18.10.2017 00:00:00 -1,4 -1,8 4 2 7 4 WNW 997,9 10 0,0
17.10.2017 23:00:00 -0,9 -1,5 2 1 7 4 NW 998,1 10 0,0
17.10.2017 22:00:00 -0,2 -1,0 2 1 4 2 - 998,4 10 0,0
17.10.2017 21:00:00 0,7 -0,2 0 0 4 2 N 998,4 10 0,0
17.10.2017 20:00:00 2,5 0,6 0 0 14 8 N 998,4 10 0,0
17.10.2017 19:00:00 3,0 1,4 8 4 14 8 W 998,7 10 0,0
17.10.2017 18:00:00 5,2 2,0 8 4 7 4 W 999,2 10 0,0
17.10.2017 17:00:00 6,6 1,9 8 4 14 8 W 999,9 10 0,0
17.10.2017 16:00:00 8,9 2,2 9 5 22 12 W 1000,5 10 0,0
17.10.2017 15:00:00 9,3 2,2 13 7 22 12 W 1001,0 10 0,0
17.10.2017 14:00:00 9,2 2,1 13 7 22 12 W 1001,2 10 0,0
17.10.2017 13:00:00 9,1 2,2 18 10 25 14 W 1001,5 10 0,0
17.10.2017 12:00:00 8,5 1,9 21 11 32 18 W 1001,8 10 0,0
17.10.2017 11:00:00 8,4 1,8 21 11 32 18 W 1001,9 10 0,0
17.10.2017 10:00:00 7,5 1,6 15 8 25 14 W 1002,2 10 0,0
17.10.2017 09:00:00 6,6 1,1 11 6 32 18 W 1002,1 10 0,0
17.10.2017 08:00:00 6,4 0,9 22 12 40 21 WNW 1001,6 10 0,0
17.10.2017 07:00:00 6,6 0,8 24 13 40 21 WNW 1001,5 10 0,0
17.10.2017 06:00:00 6,8 0,9 28 15 43 23 WNW 1001,2 10 0,0
17.10.2017 05:00:00 6,9 1,0 29 16 40 21 WNW 1000,8 10 0,0
17.10.2017 04:00:00 6,8 0,9 28 15 40 21 WNW 1000,7 10 0,0
17.10.2017 03:00:00 7,0 0,9 29 16 47 25 WNW 1000,2 10 0,0
17.10.2017 02:00:00 7,1 0,7 29 16 50 27 WNW 999,6 10 0,0
17.10.2017 01:00:00 7,0 0,4 31 17 50 27 WNW 998,9 10 0,0
17.10.2017 00:00:00 7,4 0,4 29 16 54 29 WNW 998,2 10 0,0
16.10.2017 23:00:00 7,7 0,2 34 18 54 29 W 997,6 10 0,0
16.10.2017 22:00:00 8,0 0,2 37 20 58 31 W 997,0 10 0,0
16.10.2017 21:00:00 8,5 0,0 35 19 58 31 WNW 996,8 10 0,0
16.10.2017 20:00:00 8,5 0,2 34 18 54 29 W 996,1 10 0,0
16.10.2017 19:00:00 8,7 0,4 37 20 54 29 W 995,9 10 0,0
16.10.2017 18:00:00 9,1 0,5 37 20 61 33 WNW 995,1 10 0,0
16.10.2017 17:00:00 9,9 1,3 37 20 68 37 WNW 994,0 10 0,0
16.10.2017 16:00:00 10,7 1,0 42 23 68 37 WNW 992,9 10 0,0
16.10.2017 15:00:00 11,2 1,7 39 21 68 37 WNW 991,6 10 0,0
16.10.2017 14:00:00 11,2 3,2 37 20 58 31 W 991,2 10 0,0
16.10.2017 13:00:00 10,9 5,0 22 12 36 19 W 990,8 10 0,0
16.10.2017 12:00:00 10,2 6,9 16 9 32 18 WSW 990,1 10 0,0
16.10.2017 11:00:00 8,7 8,1 16 9 40 21 SSW 990,5 10 0,0
16.10.2017 10:00:00 7,8 7,4 28 15 47 25 S 991,4 8 1,0
16.10.2017 09:00:00 7,2 6,6 31 17 50 27 SSE 993,7 2,5 0,0
16.10.2017 08:00:00 7,0 6,4 41 22 54 29 SSE 995,5 8 0,3
16.10.2017 07:00:00 6,9 6,5 37 20 47 25 SE 996,9 4,0 0,6
16.10.2017 06:00:00 7,4 6,5 28 15 36 19 SSE 999,2 4,7 1,0
16.10.2017 05:00:00 8,1 7,7 22 12 32 18 SSE 1000,6 10 0,5
16.10.2017 04:00:00 7,7 6,9 18 10 22 12 SSE 1002,0 10 0,0
16.10.2017 03:00:00 7,3 6,6 15 8 18 10 SSE 1003,2 10 0,0
16.10.2017 02:00:00 7,2 6,9 13 7 18 10 S 1004,7 10 0,0
16.10.2017 01:00:00 6,3 6,0 9 5 18 10 SSE 1005,5 10 0,0
16.10.2017 00:00:00 7,0 6,7 11 6 22 12 S 1006,6 10 0,0
15.10.2017 23:00:00 7,5 7,2 16 9 25 14 SE 1007,2 10 0,0
15.10.2017 22:00:00 6,8 6,5 16 9 22 12 SE 1007,9 0,4 0,0
15.10.2017 21:00:00 6,1 5,8 11 6 22 12 SE 1008,5 0,6 0,0
15.10.2017 20:00:00 5,6 5,3 13 7 18 10 SE 1009,1 0,6 0,0
15.10.2017 19:00:00 5,0 4,7 5 3 14 8 S 1009,6 0,7 0,0
15.10.2017 18:00:00 4,8 4,5 8 4 14 8 S 1009,2 0,8 0,0
15.10.2017 17:00:00 5,2 4,8 8 4 14 8 S 1009,8 0,3 0,0
15.10.2017 16:00:00 6,8 5,3 5 3 22 12 S 1009,4 10 0,0
15.10.2017 15:00:00 6,9 5,2 5 3 14 8 S 1009,1 10 0,0
15.10.2017 14:00:00 7,0 5,3 9 5 14 8 SSW 1009,1 10 0,0
15.10.2017 13:00:00 7,3 5,8 5 3 11 6 SE 1008,9 10 0,0
15.10.2017 12:00:00 7,1 5,6 4 2 7 4 - 1008,4 10 0,0
15.10.2017 11:00:00 6,6 5,4 2 1 7 4 - 1008,2 10 0,0
15.10.2017 10:00:00 6,3 5,6 5 3 11 6 NW 1007,5 10 0,0
15.10.2017 09:00:00 6,7 6,3 9 5 22 12 SSE 1007,2 10 0,0
15.10.2017 08:00:00 6,5 6,1 16 9 25 14 SSE 1006,6 10 0,0
15.10.2017 07:00:00 6,3 5,7 16 9 22 12 SE 1006,1 10 0,0
15.10.2017 06:00:00 6,0 5,6 16 9 25 14 SE 1005,8 10 0,0
15.10.2017 05:00:00 6,0 5,6 16 9 25 14 ESE 1005,2 9 0,0
15.10.2017 04:00:00 6,2 5,8 16 9 22 12 ESE 1004,8 3,1 1,0
15.10.2017 03:00:00 6,6 6,2 15 8 22 12 SE 1004,5 10 0,2
15.10.2017 02:00:00 6,6 6,2 11 6 25 14 SE 1004,0 10 0,0
15.10.2017 01:00:00 6,5 6,1 18 10 25 14 SE 1003,9 10 0,0
15.10.2017 00:00:00 6,4 6,0 11 6 29 16 S 1003,8 6 0,5
14.10.2017 23:00:00 6,8 6,4 21 11 29 16 SSE 1003,8 6 0,0
14.10.2017 22:00:00 6,7 6,3 18 10 29 16 SSE 1003,8 4,3 0,2
14.10.2017 21:00:00 6,7 6,3 24 13 32 18 SSE 1004,0 4,2 0,1
14.10.2017 20:00:00 6,6 6,2 24 13 29 16 SSE 1004,0 3,4 0,1
14.10.2017 19:00:00 6,7 6,3 24 13 29 16 SSE 1004,2 4,0 0,0
14.10.2017 18:00:00 6,6 6,2 21 11 29 16 SSE 1004,4 3,8 0,5
14.10.2017 17:00:00 6,4 6,0 21 11 25 14 SSE 1004,5 3,0 1,0
14.10.2017 16:00:00 6,5 6,1 18 10 29 16 SSE 1004,8 2,4 1,0
14.10.2017 15:00:00 6,4 5,8 24 13 32 18 SSE 1005,1 5 0,4
14.10.2017 14:00:00 6,5 5,6 24 13 32 18 SSE 1005,5 10 0,3
14.10.2017 13:00:00 6,4 5,5 24 13 32 18 SSE 1005,8 10 1,0
14.10.2017 12:00:00 5,9 5,2 24 13 32 18 SSE 1006,5 10 1,0
14.10.2017 11:00:00 5,7 4,8 21 11 29 16 SSE 1007,1 9 1,0
14.10.2017 10:00:00 5,9 4,5 16 9 25 14 S 1007,5 10 1,0
14.10.2017 09:00:00 6,3 4,1 21 11 32 18 SSE 1007,9 10 0,5

tt = temperature
td = dewpoint
ff = wind speed
fx = gusts
dd = wind direction
ppp = reduced air pressure
vv = visibility
rr = precipitation

Next stations